FW8051 Weather Reports


time (UTC)temp
C
wind
direction
speed
KPH
gust
KPH
rain 1hr
cm
rain 24hr
cm
rain mn
cm
humidity
%
barometer
mb
20260504003037 13 269 9.7 17.7 0.00 0.00 0.00 83 1017.2
20260504001536 15 164 14.5 30.6 0.00 0.00 0.00 83 1017.3
20260504000037 14 190 12.9 27.4 0.00 0.00 0.00 87 1017.5
20260503234543 13 222 9.7 19.3 0.00 0.00 0.00 86 1017.6
20260503233038 13 242 9.7 17.7 0.00 0.00 0.00 85 1017.7
20260503231536 13 204 8.0 14.5 0.00 0.00 0.00 84 1017.7
20260503230039 15 212 9.7 22.5 0.00 0.00 0.00 83 1017.9
20260503224536 14 241 12.9 22.5 0.00 0.00 0.00 83 1018.0
20260503223041 14 186 8.0 20.9 0.00 0.00 0.00 85 1018.1
20260503221542 14 261 8.0 16.1 0.00 0.00 0.00 84 1018.0
20260503220042 15 225 9.7 16.1 0.00 0.00 0.00 86 1018.0
20260503214535 14 215 6.4 16.1 0.00 0.00 0.00 86 1018.0
20260503213046 13 256 8.0 14.5 0.00 0.00 0.00 85 1018.1
20260503211542 14 276 3.2 14.5 0.00 0.00 0.00 84 1018.0
20260503210048 14 360 6.4 12.9 0.00 0.00 0.00 84 1018.0
20260503204549 14 235 8.0 16.1 0.00 0.00 0.00 84 1018.2
20260503203038 14 261 9.7 16.1 0.00 0.00 0.00 84 1018.3
20260503201540 15 259 9.7 17.7 0.00 0.00 0.00 83 1018.2
20260503200049 15 266 4.8 14.5 0.00 0.00 0.00 83 1018.2
20260503194546 16 193 8.0 14.5 0.00 0.00 0.00 85 1018.1
20260503193050 15 219 4.8 14.5 0.00 0.00 0.00 83 1018.2
20260503191541 16 266 6.4 12.9 0.00 0.00 0.00 82 1018.1
20260503190042 17 198 9.7 16.1 0.00 0.00 0.00 83 1017.9
20260503184546 17 198 9.7 17.7 0.00 0.00 0.00 84 1017.9
20260503183054 17 188 16.1 25.7 0.00 0.00 0.00 83 1018.0
20260503181543 17 360 16.1 29.0 0.00 0.00 0.00 83 1017.7
20260503180044 17 196 14.5 24.1 0.00 0.00 0.00 82 1017.8
20260503174539 17 191 16.1 25.7 0.00 0.00 0.00 82 1017.8
20260503173105 17 200 16.1 32.2 0.00 0.00 0.00 80 1017.8
20260503171536 17 186 19.3 29.0 0.00 0.00 0.00 79 1017.8
20260503081542 16 150 16.1 25.7 0.00 0.00 0.00 80 1020.5
20260503071539 16 140 12.9 19.3 0.00 0.00 0.00 79 1020.2
20260503054544 12 275 9.7 16.1 0.00 0.00 0.00 80 1020.0
20260503053042 11 265 9.7 16.1 0.00 0.00 0.00 80 1020.1
20260503051542 10 259 11.3 16.1 0.00 0.00 0.00 80 1020.2
20260503050037 10 266 12.9 17.7 0.00 0.00 0.00 80 1020.0
20260503044535 10 257 11.3 17.7 0.00 0.00 0.00 80 1020.1
20260503043043 9 263 11.3 19.3 0.00 0.00 0.00 80 1020.2
20260503041542 9 253 12.9 19.3 0.00 0.00 0.00 79 1019.9
20260503040047 10 273 12.9 17.7 0.00 0.00 0.00 79 1019.9
20260503034554 10 251 12.9 17.7 0.00 0.00 0.00 79 1020.0
20260503033044 10 257 12.9 19.3 0.00 0.00 0.00 79 1020.2
20260503031541 10 250 14.5 19.3 0.00 0.00 0.00 78 1020.3
20260503030052 10 261 12.9 19.3 0.00 0.00 0.00 78 1020.4
20260503024545 10 250 12.9 19.3 0.00 0.00 0.00 78 1020.5
20260503023041 10 247 12.9 19.3 0.00 0.00 0.00 78 1020.4
20260503021543 9 260 14.5 19.3 0.00 0.00 0.00 78 1020.4
20260503020041 10 274 14.5 19.3 0.00 0.00 0.00 78 1020.4
20260503014548 9 257 12.9 19.3 0.00 0.00 0.00 78 1020.5
20260503013042 10 257 12.9 19.3 0.00 0.00 0.00 78 1020.5
20260503011540 10 257 12.9 17.7 0.00 0.00 0.00 78 1020.6
20260503010045 10 261 12.9 17.7 0.00 0.00 0.00 78 1020.6
20260503004546 10 263 12.9 19.3 0.00 0.00 0.00 78 1020.9